Tracking 30744 objects as of 24-Jun-2025
HD Live streaming from Space Station
objects crossing your sky now

STARLINK-4522

Track STARLINK-4522 now!
10-day predictions
STARLINK-4522 is classified as:


NORAD ID: 53388
Int'l Code: 2022-097A
Perigee: 546.2 km
Apogee: 547.5 km
Inclination: 53.2 °
Period: 95.4 minutes
Semi major axis: 6917 km
RCS: Unknown
Launch date: August 10, 2022
Source: United States (US)
Launch site: AIR FORCE EASTERN TEST RANGE (AFETR)
Your satellite tracking list
Your tracking list is empty




NASA's NSSDC Master Catalog

Two Line Element Set (TLE):
1 53388U 22097A   25174.39354773 -.00000222  00000-0  41523-5 0  9994
2 53388  53.2163 208.1471 0000945  76.4392 283.6706 15.08836827159703
Source of the keplerian elements: AFSPC